This demonstration page uses our WeatherBlox Daily Observations layout. Learn more.

Left ArrowRight Arrow

38.80484, -77.04692

Hourly Observations for December 29, 2021

Temp ( °F °C ) Dew Point ( °F °C ) Humidity (%) Winds ( mph kmh ) Pressure ( in mb ) Visibility ( mi km ) Precip ( " mm )
12:52 am 00:52 Cloudy 51 10.6 32 0 48 48 E 5 7 29.74 1007 10 16 0.00 0.00
1:52 am 01:52 Cloudy 49 9.4 39 3.9 69 69 ENE 5 7 29.72 1007 10 16 0.00 0.00
2:52 am 02:52 Partly Cloudy 49 9.4 40 4.4 71 71 NE 7 11 29.73 1007 10 16 0.00 0.00
3:52 am 03:52 Cloudy 50 10 42 5.6 74 74 N 10 17 29.76 1008 10 16 0.00 0.00
4:29 am 04:29 Cloudy 50 10 42 5.6 74 74 NNE 13 20 29.78 1008 10 16 0.00 0.00
4:52 am 04:52 Cloudy 49 9.4 39 3.9 69 69 ENE 8 13 29.76 1008 10 16 0.00 0.00
5:52 am 05:52 Cloudy 49 9.4 39 3.9 69 69 NNE 6 9 29.80 1009 10 16 0.00 0.00
6:52 am 06:52 Cloudy 49 9.4 40 4.4 71 71 Calm 29.82 1010 10 16 0.00 0.00
7:52 am 07:52 Cloudy 49 9.4 39 3.9 69 69 Calm 29.83 1010 10 16 0.00 0.00
8:52 am 08:52 Cloudy 50 10 40 4.4 68 68 Calm 29.86 1011 10 16 0.00 0.00
9:52 am 09:52 Cloudy 50 10 40 4.4 68 68 Calm 29.88 1012 10 16 0.00 0.00
10:52 am 10:52 Cloudy 52 11.1 40 4.4 64 64 Calm 29.89 1012 10 16 0.00 0.00
11:52 am 11:52 Cloudy 52 11.1 41 5 66 66 NE 7 11 29.88 1012 10 16 0.00 0.00
12:52 pm 12:52 Cloudy 53 11.7 41 5 64 64 ENE 6 9 29.86 1011 10 16 0.00 0.00
1:52 pm 13:52 Cloudy 52 11.1 41 5 66 66 ENE 10 17 29.86 1011 10 16 0.00 0.00
2:52 pm 14:52 Mostly Cloudy 54 12.2 40 4.4 59 59 NE 6 9 29.87 1012 10 16 0.00 0.00
3:52 pm 15:52 Cloudy 53 11.7 41 5 64 64 NNE 5 7 29.89 1012 10 16 0.00 0.00
4:52 pm 16:52 Cloudy 51 10.6 41 5 69 69 ENE 7 11 29.91 1013 10 16 0.00 0.00
5:41 pm 17:41 Cloudy with Light Rain 50 10 42 5.6 74 74 E 6 9 29.91 1013 10 16 0.00 0.00
5:52 pm 17:52 Cloudy with Light Rain 50 10 42 5.6 74 74 E 7 11 29.92 1013 10 16 0.01 0.25
6:52 pm 18:52 Cloudy with Light Rain 50 10 43 6.1 77 77 NNE 3 6 29.96 1015 7 11 0.00 0.00
7:52 pm 19:52 Cloudy with Light Rain 48 8.9 44 6.7 86 86 NE 5 7 29.94 1014 6 10 0.08 2.03
8:52 pm 20:52 Cloudy with Light Rain 48 8.9 44 6.7 86 86 VRB 3 6 29.90 1013 9 14 0.03 0.76
9:52 pm 21:52 Cloudy 49 9.4 46 7.8 90 90 NNW 6 9 29.96 1015 8 13 0.00 0.00
10:52 pm 22:52 Cloudy 48 8.9 45 7.2 89 89 Calm 29.94 1014 7 11 0.00 0.00
11:38 pm 23:38 Cloudy 49 9.4 46 7.8 90 90 N 5 7 29.94 1014 7 11 0.00 0.00
11:52 pm 23:52 Cloudy with Light Rain 49 9.4 46 7.8 90 90 N 6 9 29.95 1014 7 11 0.00 0.00

Powered by AerisWeather